Regional Weather Roundup
Issued by NWS

Home | Current Version | Previous Version | Text Only | Print | Product List | Glossary Off
Versions: 1 2 3 4 5 6 7 8 9 10 11 12 13 14 15 16 17 18 19 20 21 22 23 24 25 26 27 28 29 30 31 32 33 34 35 36 37 38 39 40 41 42 43 44 45 46 47 48 49 50

000
ASUS45 KBOU 250207
RWRCO

WEATHER ROUNDUP FOR COLORADO
NATIONAL WEATHER SERVICE DENVER/BOULDER CO
800 PM MDT SUN MAY 24 2015

NOTE: "FAIR" INDICATES FEW OR NO CLOUDS BELOW 12000 FEET WITH NO
SIGNIFICANT WEATHER AND/OR OBSTRUCTIONS TO VISIBILITY.

COZ001>005-013-030-031-250300-
...NORTHWEST COLORADO...

CITY           SKY/WX    TMP DP  RH WIND       PRES   REMARKS
CRAIG          CLOUDY    46  39  76 W9        29.94R
HAYDEN         CLOUDY    43  36  75 W5        29.94S
MEEKER         CLOUDY    45  39  79 CALM      29.96R
MOUNT WERNER   NOT AVBL
STEAMBOAT SPGS CLOUDY    40  37  90 SE7       29.95R
WALDEN         CLOUDY    36  34  93 NW7       29.95S
$$

COZ006>008-011-250300-
...WEST CENTRAL VALLEYS...

CITY           SKY/WX    TMP DP  RH WIND       PRES   REMARKS
GRAND JUNCTION LGT RAIN  53  45  74 N10       29.90R
MONTROSE       CLOUDY    53  42  66 SW6       29.94R
EAGLE          CLOUDY    46  37  71 SW14      29.95S
RIFLE          RAIN      47  44  90 CALM      29.96R FOG
DELTA          MOCLDY    56  44  62 MISG      29.91R
NUCLA          MOCLDY    55  39  54 E6        29.95R
$$

COZ017>023-064>068-250300-
...SOUTHWEST COLORADO...

CITY           SKY/WX    TMP DP  RH WIND       PRES   REMARKS
DURANGO        PTCLDY    53  33  46 W15       29.94R
CORTEZ         CLEAR     55  40  56 W6        29.94R
PAGOSA SPRINGS PTCLDY    43  41  95 E5        30.00R
TELLURIDE      CLOUDY    41  36  83 CALM      30.06R
WOLF CREEK PAS NOT AVBL
$$

COZ009-010-012-014-032>034-037-058>063-250300-
...CENTRAL COLORADO...

CITY           SKY/WX    TMP DP  RH WIND       PRES   REMARKS
ASPEN          LGT RAIN  41  37  86 N6        29.97R
BUENA VISTA    CLOUDY    49  26  41 W13G22    29.91R
COPPER MTN     HVY SNOW  34  30  86 W16       30.05S VSB<1/4 WCI  23
BERTHOUD PASS  HAZE      25  18  74 N7G28     30.07R VSB<1/4 WCI  17
COTTONWOOD PAS CLOUDY    43  27  52 W16G23    29.98R
GUNNISON       MOCLDY    48  30  49 N5        29.98R
KREMMLING      LGT RAIN  41  36  81 SE6       29.96S
LEADVILLE      CLOUDY    35  28  75 NW14      29.99R WCI  26
SALIDA         CLOUDY    52  32  45 SW15G24   29.97R
SUNLIGHT       SNOW      32  32 100 CALM      30.07S VSB 1/4
WILKERSON PASS MOCLDY    32  30  93 E6        30.05S WCI  26
$$

COZ069>075-250300-
...SAN LUIS VALLEY/SANGRE DE CRISTO MOUNTAINS...

CITY           SKY/WX    TMP DP  RH WIND       PRES   REMARKS
ALAMOSA        MOCLDY    46  37  71 N7        29.94R
LA VETA PASS   MOCLDY   N/A N/A N/A MISG      30.01R
SAGUACHE       LGT RAIN  43  37  81 S12G22    29.96R
$$

COZ035-036-038>040-250300-
...NORTHERN COLORADO FRONT RANGE...

CITY           SKY/WX    TMP DP  RH WIND       PRES   REMARKS
DENVER INTL AP MOCLDY    54  41  61 N10       29.84R
DMNS CITY PARK   N/A     55  38  53 W6        29.85R
AURORA         MOCLDY    54  40  60 NW3       29.85R
FRONT RANGE AP NOT AVBL
ERIE MUNI ARPT MOCLDY    53  45  76 CALM      29.85R
BOULDER MUN AP MOCLDY    54  43  66 CALM      29.85R
CENTENNIAL     MOCLDY    52  43  71 W6        29.85R
BROOMFIELD     NOT AVBL
FORT COLLINS   MOCLDY    52  39  62 N12       29.87R
LONGMONT       MOCLDY    55  44  68 NE5       29.85S
$$

COZ041-046-047-076>085-087-088-250300-
...PIKES PEAK/PALMER DIVIDE AND SOUTHERN FOOTHILLS...

CITY           SKY/WX    TMP DP  RH WIND       PRES   REMARKS
COLO. SPRINGS  MOCLDY    52  41  66 N5        29.86S
A. F. ACADEMY  MOCLDY    48  41  76 N6        29.87R
ELLICOTT       NOT AVBL
FALCON         MOCLDY    48  40  73 NW5       29.90R
FORT CARSON    CLOUDY    52  44  74 NW5       29.84R
LIMON          CLOUDY    50  46  86 E9        29.84R
MONUMENT HILL  NOT AVBL
TRINIDAD       MOCLDY    53  44  71 CALM      29.83R
$$

COZ042>045-048>051-090-091-250300-
...NORTHEAST COLORADO...

CITY           SKY/WX    TMP DP  RH WIND       PRES   REMARKS
GREELEY ARPT   MOCLDY    54  43  66 NE8       29.84R
AKRON          CLOUDY    49  47  93 CALM      29.80S
BURLINGTON     CLOUDY    50  47  89 E13       29.80F
WRAY           RAIN      53  51  92 SE7       29.80S
STERLING       CLOUDY    52  50  93 NW8       29.80R
HOLYOKE        NOT AVBL
FORT MORGAN    CLOUDY    54  44  68 N7        29.83S
$$

COZ086-089-092>099-250300-
...SOUTHEAST COLORADO...

CITY           SKY/WX    TMP DP  RH WIND       PRES   REMARKS
PUEBLO         MOCLDY    57  46  66 CALM      29.79R
LA JUNTA       MOCLDY    55  48  77 S5        29.76F
LAMAR          LGT RAIN  54  48  80 NE6       29.75R
SPRINGFIELD      N/A     54  46  74 NW17      29.78F
$$



USA.gov is the U.S. government's official web portal to all federal, state and local government web resources and services.